Everett, WA

12:07 AM PST on December 16, 2019 (GMT -0800)
Snohomish County

Weather History for KPAE - October, 2019

Change the Weather History Date:

Monday, October 7, 2019

  Actual Average Record
Temperature  
Mean Temperature 54 °F -  
Max Temperature 61 °F 61 °F 75 °F (2000)
Min Temperature 48 °F 43 °F 31 °F (1974)
Degree Days  
Heating Degree Days 10    
Growing Degree Days 4 (Base 50)    
Moisture  
Dew Point 50 °F    
Average Humidity 86    
Maximum Humidity 97    
Minimum Humidity 69    
Precipitation  
Precipitation 0.39 in - - ()
Sea Level Pressure  
Sea Level Pressure 29.93 in    
Wind  
Wind Speed 10 mph (SSW)    
Max Wind Speed 23 mph    
Max Gust Speed 30 mph    
Visibility 6 miles    
Events Rain    
Averages and records for this station are not official NWS values.
T = Trace of Precipitation, MM = Missing Value Source: NWS Daily Summary

Daily Weather History Graph

Daily Weather History Graph

Search for Another Location

Airport or City:

Astronomy

Oct. 07, 2019 Rise Set
Actual Time 7:16 AM PDT 6:36 PM PDT
Civil Twilight 6:45 AM PDT 7:07 PM PDT
Nautical Twilight 6:09 AM PDT 7:43 PM PDT
Astronomical Twilight 5:33 AM PDT 8:19 PM PDT
Moon 4:31 PM PDT (10/7) 12:42 AM PDT (10/7)
Length of Visible Light 12h 21m
Length of Day
11h 19m
Waxing Gibbous, 70% of the Moon is Illuminated
Oct 7
Waxing Gibbous
Oct 13
Full
Oct 21
Last Quarter
Oct 27
New
Nov 4
First Quarter

Hourly Weather History & Observations

Time (PDT) Temp. Dew Point Humidity Pressure Visibility Wind Dir Wind Speed Gust Speed Precip Events Conditions
12:53 AM 51.1 °F 46.9 °F 86% 30.13 in 10.0 mi SSE 5.8 mph - N/A   Overcast
1:53 AM 51.1 °F 46.0 °F 83% 30.11 in 10.0 mi SSE 5.8 mph - 0.00 in   Overcast
2:53 AM 51.1 °F 46.9 °F 86% 30.10 in 10.0 mi South 5.8 mph - N/A   Overcast
3:53 AM 52.0 °F 46.9 °F 83% 30.06 in 10.0 mi SSE 12.7 mph - N/A   Overcast
4:53 AM 52.0 °F 46.0 °F 80% 30.06 in 10.0 mi SSE 10.4 mph - N/A   Overcast
5:53 AM 53.1 °F 45.0 °F 74% 30.06 in 10.0 mi SE 8.1 mph - N/A   Mostly Cloudy
6:53 AM 53.1 °F 45.0 °F 74% 30.04 in 10.0 mi SSE 11.5 mph - N/A   Overcast
7:53 AM 54.0 °F 44.1 °F 69% 30.03 in 10.0 mi SSE 17.3 mph - N/A   Overcast
8:53 AM 55.0 °F 46.0 °F 72% 30.01 in 10.0 mi SSE 12.7 mph - N/A   Overcast
9:53 AM 55.9 °F 46.9 °F 72% 30.00 in 10.0 mi SSE 16.1 mph - N/A   Overcast
10:53 AM 57.0 °F 48.9 °F 74% 29.98 in 10.0 mi SSE 15.0 mph - N/A   Overcast
11:53 AM 59.0 °F 52.0 °F 78% 29.96 in 10.0 mi South 19.6 mph 29.9 mph N/A   Overcast
12:53 PM 61.0 °F 53.1 °F 75% 29.93 in 10.0 mi SSW 17.3 mph 28.8 mph 0.00 in   Overcast
1:53 PM 60.1 °F 54.0 °F 80% 29.91 in 10.0 mi South 23.0 mph - N/A   Overcast
2:53 PM 61.0 °F 54.0 °F 78% 29.90 in 10.0 mi South 18.4 mph 23.0 mph N/A   Overcast
3:53 PM 59.0 °F 55.9 °F 90% 29.89 in 10.0 mi SSW 13.8 mph - 0.00 in   Overcast
4:00 PM 59.0 °F 55.9 °F 90% 29.89 in 10.0 mi SSW 13.8 mph - N/A   Overcast
4:37 PM 57.9 °F 55.9 °F 93% 29.87 in 1.8 mi South 13.8 mph - 0.02 in Rain Light Rain
4:53 PM 57.9 °F 55.9 °F 93% 29.87 in 1.5 mi South 12.7 mph - 0.03 in Rain Light Rain
5:43 PM 57.9 °F 57.0 °F 97% 29.85 in 2.0 mi SSW 12.7 mph - 0.05 in Rain Light Rain
5:53 PM 57.9 °F 57.0 °F 97% 29.85 in 2.0 mi SSW 11.5 mph - 0.05 in Rain Light Rain
6:20 PM 57.0 °F 55.9 °F 96% 29.84 in 3.0 mi West 6.9 mph - 0.02 in Rain Light Rain
6:33 PM 57.9 °F 55.9 °F 93% 29.84 in 2.0 mi West 8.1 mph - 0.04 in Rain Light Rain
6:53 PM 57.0 °F 55.9 °F 96% 29.84 in 2.0 mi NNW 5.8 mph - 0.09 in Rain Rain
7:02 PM 55.0 °F 54.0 °F 96% 29.84 in 1.0 mi NNW 10.4 mph 16.1 mph 0.02 in Rain Rain
7:13 PM 54.0 °F 53.1 °F 97% 29.85 in 1.0 mi NNW 6.9 mph - 0.04 in Rain Light Rain
7:53 PM 53.1 °F 52.0 °F 96% 29.86 in 1.0 mi NNW 5.8 mph - 0.06 in Rain Light Rain
8:00 PM 53.1 °F 52.0 °F 96% 29.86 in 2.0 mi Variable 4.6 mph - 0.01 in Rain Light Rain
8:17 PM 53.1 °F 51.1 °F 93% 29.86 in 2.0 mi NW 4.6 mph - 0.03 in Rain Light Rain
8:53 PM 52.0 °F 46.9 °F 83% 29.85 in 2.0 mi NW 13.8 mph 24.2 mph 0.04 in Rain Light Rain
9:00 PM 51.1 °F 46.9 °F 86% 29.85 in 10.0 mi NW 12.7 mph 24.2 mph 0.00 in Rain Light Rain
9:53 PM 48.9 °F 46.0 °F 90% 29.86 in 6.0 mi North 10.4 mph 18.4 mph 0.01 in Rain Light Rain
10:53 PM 48.9 °F 45.0 °F 86% 29.87 in 10.0 mi North 6.9 mph - 0.01 in Rain Light Rain
11:38 PM 48.9 °F 44.1 °F 83% 29.88 in 2.5 mi North 4.6 mph - 0.05 in Rain Rain
11:53 PM 48.9 °F 44.1 °F 83% 29.89 in 2.0 mi Variable 4.6 mph - 0.10 in Rain Rain